Location: Kaihinu
(40.5000°S, 175.5500°E)
Time: 05:03:14
(UTC+00:00)

Daily predictions for brighter satellites

Satellite Brightness Start Highest point End
(mag) Time Altitude Azimuth Time Altitude Azimuth Time Altitude Azimuth
PAYLOAD B 4.3 07:52:15 10° SSE 07:57:57 74° ENE 08:03:32 10° N
Cosmos 1943 3.7 07:52:30 10° SSW 07:58:00 45° ESE 08:03:27 10° NE
NOSS 3-2 (A) 4.3 07:53:54 10° SW 07:59:39 45° WNW 08:04:39 10° N
SL-8 R/B 4.1 07:56:26 10° WNW 08:01:14 68° SSW 08:06:05 10° ESE
Cosmos 1869 3.5 07:57:21 10° N 08:01:25 82° W 08:05:33 10° S
USA 276 4.3 07:59:14 10° W 08:01:34 20° NW 08:03:53 10° N
CZ-4 R/B 1.7 07:58:07 10° SSE 08:02:13 49° E 08:06:17 10° N
Cosmos 1315 Rocket 2.9 08:04:15 10° S 08:08:27 81° E 08:12:34 10° NNE
SJ 16-02 4.1 08:08:19 10° SW 08:11:32 20° W 08:14:43 10° NW
Cosmos 2084 Rocket 3.8 08:09:48 10° SSW 08:14:40 67° SE 08:19:18 10° NE
USA 186 2.8 08:12:00 10° SE 08:14:59 29° E 08:17:57 10° NNE
Iridium 2 3.6 08:13:19 10° N 08:17:01 87° E 08:20:47 10° S
Okean O Rocket 1.6 08:13:29 10° SSE 08:17:52 62° E 08:22:11 10° N
SeaSat 1 3.3 08:14:53 10° ENE 08:19:24 37° SE 08:23:58 10° S
Cosmos-2242 3.8 08:17:15 10° NNE 08:21:06 32° E 08:25:03 10° SSE
Nadezhda 1 Rocket 4.1 08:15:46 10° S 08:22:12 84° E 08:28:38 10° N
Okean-O 3.8 08:18:55 10° SE 08:22:33 24° E 08:26:09 10° NNE
Cosmos 1745 Rocket 4.1 08:19:23 10° N 08:25:32 86° W 08:31:48 10° S
IGS 5A 3.4 08:25:24 10° SSE 08:29:37 69° ENE 08:33:46 10° N
CZ-4C R/B 3.9 08:27:18 10° S 08:31:13 19° SSE 08:34:40 10° ESE
CZ-4B R/B 3.3 08:28:26 10° S 08:33:51 77° WSW 08:39:09 10° NNW
ATLAS 2AS CENTAUR R/B 3.5 08:28:50 10° NNE 08:33:51 25° ENE 08:39:00 10° ESE
Cosmos 1356 3.5 08:33:16 10° NNE 08:36:14 42° E 08:39:14 10° SSE
YAOGAN 1 4.1 08:33:57 10° S 08:38:04 40° WSW 08:42:08 10° NW
CENTAUR R/B 4.3 08:34:49 10° WSW 08:38:12 18° WNW 08:41:26 10° NNW
PSLV R/B 4.1 08:35:36 10° NNE 08:39:49 83° WNW 08:44:05 10° SSW
Cosmos 2263 Rocket 4.2 08:38:21 10° WNW 08:43:21 32° WSW 08:48:26 10° S
Cosmos 2151 3.2 08:39:09 10° SSW 08:43:25 70° W 08:47:38 10° N
Cosmos 1709 Rocket 4.0 08:37:38 10° N 08:43:48 84° E 08:50:09 10° S
Cosmos 1812 Rocket 3.5 08:39:35 10° N 08:43:56 63° E 08:48:18 10° SSE
Cosmos 1603 3.7 08:39:43 10° SSW 08:45:25 84° ESE 08:50:09 15° NNE
CZ-4B R/B 2.7 08:46:46 18° ESE 08:46:59 18° ESE 08:48:59 10° SSE
Cosmos 1862 3.3 08:45:38 10° S 08:49:39 82° W 08:53:19 12° N
Resurs 1-3 3.6 08:47:11 10° SSE 08:51:38 63° E 08:56:00 10° N
Cosmos 468 Rocket 4.5 08:50:01 10° NNW 08:55:08 64° WSW 09:00:22 10° SSE
BREEZE-M DEB (TANK) 3.2 08:53:08 10° NW 08:56:16 64° NE 09:05:24 10° ESE
Cosmos 1606 4.0 08:54:38 10° NNW 08:58:15 41° WSW 09:01:53 10° S
SAR-Lupe-3 4.5 08:56:35 10° SSE 09:00:12 90° NE 09:03:47 10° NNW
RESURS DK-1 2.7 08:56:50 12° N 09:00:20 41° ENE 09:04:18 10° SE
Cosmos 2074 Rocket 4.5 08:58:21 19° NNE 09:02:30 42° E 09:08:23 10° SSE
OE (NEXTSAT) 4.4 09:04:17 10° WSW 09:07:09 46° NNW 09:07:36 41° N
Cosmos 1812 4.4 09:08:46 18° ESE 09:08:46 18° ESE 09:10:46 10° SE
SJ-6B 3.9 09:08:17 10° S 09:11:54 44° WSW 09:15:28 10° NW
H-2A ROCKET BODY 3.4 09:11:43 10° NW 09:12:50 11° NNW 09:13:08 11° NNW
Cosmos 1844 Rocket 2.7 09:07:19 10° NNW 09:12:57 84° WSW 09:18:41 10° SSE
CSL-04 Debris 4.3 09:08:47 10° SSE 09:14:22 80° WSW 09:19:51 10° NNW
Cosmos 1814 Rocket 4.4 09:13:42 28° NNE 09:15:50 41° ENE 09:20:45 10° SE
H-2A R/B 2.9 09:13:08 14° N 09:16:51 52° W 09:21:17 10° SSW
H-2A R/B 4.0 09:14:24 10° SE 09:16:53 21° ESE 09:16:53 21° ESE
Cosmos 540 Rocket 4.4 09:14:08 10° NW 09:19:05 48° WSW 09:24:05 10° S
CSL-04 Rocket 3.7 09:13:57 10° SSE 09:19:21 81° WSW 09:24:39 10° NNW
MetOp-A 4.2 09:19:20 10° SSE 09:22:47 33° E 09:22:47 33° E
Cosmos 841 Rocket 3.6 09:18:50 10° NNW 09:24:01 76° WSW 09:29:15 10° SSE
ATLAS 3B R/B 4.3 09:22:08 10° SSW 09:26:59 21° SE 09:30:56 13° ESE
Cosmos 1937 Rocket 3.5 09:25:56 10° SSW 09:31:20 83° WNW 09:33:43 34° NNE
Resurs 01 Rocket 1.5 09:27:37 10° SSE 09:32:06 76° ENE 09:33:51 36° N
Cosmos 1844 4.0 09:28:48 10° NNW 09:34:25 68° WSW 09:40:03 10° SSE
Meteor 2-2 Rocket 4.4 09:30:40 12° N 09:36:11 83° W 09:42:19 10° S
Cosmos 2221 2.6 09:36:29 52° ENE 09:36:55 55° E 09:41:15 10° SSE
Cosmos 1766 Rocket 3.6 09:33:49 10° S 09:38:20 62° E 09:39:03 54° NE
Cosmos 1782 3.6 09:39:09 37° ESE 09:39:09 37° ESE 09:42:13 10° SSE
CZ-2C R/B 4.3 09:43:21 31° NNW 09:45:12 52° W 09:49:36 10° SSW
Cosmos 1295 Rocket 4.5 09:44:06 36° NNE 09:46:43 67° E 09:52:57 10° SSE
Cosmos 2278 Rocket 3.9 09:51:50 18° ESE 09:51:50 18° ESE 09:53:59 10° SE
Meteor 1-20 Rocket 4.2 09:44:48 10° S 09:50:38 90° E 09:52:42 43° N
Cosmos 1833 Rocket 4.0 09:46:10 10° S 09:50:53 26° SE 09:52:11 24° ESE
IRAS Rocket 4.2 09:49:23 47° NE 09:51:04 74° ESE 09:56:45 10° SSW
Cosmos 1666 2.9 09:47:46 10° S 09:51:11 61° SE 09:51:11 61° SE
Cosmos 371 Rocket 3.3 09:46:57 10° SSW 09:51:50 79° WNW 09:52:51 55° N
Cosmos 1570 Rocket 4.1 09:51:59 53° ENE 09:52:16 53° ENE 09:57:25 10° SSE
Meteor 1-4 Rocket 3.0 09:52:08 10° S 09:54:52 52° S 09:54:52 52° S
SeaSat 1 3.9 09:54:36 21° NNW 09:56:53 29° WNW 10:01:13 10° SW
Okean-O 4.4 09:55:01 10° S 09:59:00 31° WSW 10:02:55 10° NW
Cosmos 1346 Rocket 3.0 10:04:33 68° W 10:04:34 68° W 10:08:36 10° S
Meteor 1-25 Rocket 4.2 09:59:35 10° SSW 10:05:14 79° W 10:06:41 51° N
Meteor 1-26 Rocket 4.2 10:05:19 58° NE 10:06:15 67° E 10:12:11 10° SSE
Cosmos 2327 Rocket 4.4 10:05:22 49° NNE 10:07:07 73° E 10:13:29 10° S
SPOT 1/Viking Rocket 4.4 10:04:08 10° S 10:09:13 49° WSW 10:12:54 18° NW
Cosmos 2341 Rocket 4.3 10:14:54 49° ENE 10:15:16 49° E 10:21:23 10° SSE
Nadezhda 3 Rocket 4.0 10:10:17 10° S 10:16:45 88° W 10:18:22 54° N
CZ-4B R/B 4.0 10:17:46 13° WSW 10:17:46 13° WSW 10:18:38 10° WSW
CZ-4C R/B 1.8 10:15:13 10° SW 10:20:19 74° W 10:20:19 74° W
IRS-1A Rocket 4.4 10:17:41 10° S 10:23:15 69° WSW 10:25:03 43° NW
ATLAS 2AS CENTAUR R/B 3.0 10:17:47 10° NW 10:24:09 61° SW 10:30:51 10° SSE
SL-8 Rocket 4.2 10:26:05 51° E 10:26:06 51° E 10:32:10 10° SSE
deb Chang Zheng 4 4.4 10:28:40 10° S 10:31:23 42° S 10:31:23 42° S
BREEZE-M DEB (TANK) 4.1 10:17:37 10° NW 10:32:45 78° NNE 10:34:38 42° ESE
Terra 2.7 10:35:39 10° SSE 10:38:58 42° SE 10:38:58 42° SE
Cosmos 1339 Rocket 4.3 10:35:22 10° S 10:41:38 79° E 10:41:59 76° ENE
Ariane Rocket 3.6 10:43:37 10° S 10:48:35 52° WSW 10:49:10 49° W
H-2A R/B 4.1 10:49:20 10° S 10:53:04 29° WSW 10:53:16 29° WSW
Cosmos 1125 Rocket 3.7 10:50:31 10° SSW 10:55:06 67° S 10:55:06 67° S
Meteor 2-6 Rocket 4.3 10:56:52 80° SE 10:56:52 80° SE 11:02:31 10° S
Cosmos 2298 Rocket 4.3 10:51:12 10° SSW 10:55:52 63° SSE 10:55:52 63° SSE
SPOT 5 3.5 10:53:25 10° S 10:58:45 58° WSW 10:58:59 58° W
USA 215 3.1 10:55:08 10° SE 11:01:46 79° NE 11:01:46 79° NE
Spot 2 Rocket 3.9 10:57:48 10° S 11:02:18 62° SSW 11:02:18 62° SSW
SPOT 3 Rocket 4.0 10:58:12 10° S 11:03:20 55° WSW 11:03:22 55° WSW
Cosmos 1959 Rocket 4.4 11:07:54 80° SSE 11:07:54 80° SSE 11:13:45 10° S
COSMOS 2406 3.9 11:05:09 10° SSW 11:10:12 46° SE 11:10:12 46° SE
ERS-1 Rocket 3.8 11:13:07 10° S 11:17:39 47° WSW 11:17:39 47° WSW
ATLAS 3B R/B 2.5 11:12:03 10° SSW 11:18:09 80° SSW 11:18:09 80° SSW
Cosmos 2285 Rocket 4.2 11:19:37 61° SE 11:19:37 61° SE 11:25:01 10° SSE
Cosmos 2366 rocket 4.1 11:21:06 71° W 11:21:07 71° W 11:27:33 10° S
Cosmos 2218 Rocket 4.2 11:23:52 68° W 11:23:58 68° W 11:30:27 10° S
Cosmos 2082 Rocket 2.9 11:18:36 10° SSW 11:23:25 48° SE 11:23:25 48° SE
Cosmos 2278 Rocket 2.8 11:33:38 52° SW 11:33:38 52° SW 11:39:00 10° SSE
Cosmos 1833 Rocket 3.6 11:29:36 10° SW 11:33:51 41° WSW 11:33:51 41° WSW
USA 267 4.1 11:33:09 33° ESE 11:35:27 44° SSE 11:41:38 10° SW
ADEOS Rocket 3.4 11:32:00 10° S 11:39:33 70° WSW 11:40:13 66° WNW
Lacrosse 5 rocket 4.4 11:48:14 10° SE 11:48:14 10° SE 11:48:18 10° SE
Cosmos 2369 Rocket 4.3 11:51:54 16° ESE 11:51:54 16° ESE 11:53:35 10° SE
